Kinloss, United Kingdom

4:40 AM BST on June 28, 2017 (GMT +0100)
Kinloss Air Base

Weather History for EGQK - April, 2013

Change the Weather History Date:

Tuesday, April 30, 2013

  Actual Average Record
Temperature  
Mean Temperature 44 °F -  
Max Temperature 54 °F 57 °F 66 °F (2011)
Min Temperature 34 °F 42 °F 32 °F (2006)
Degree Days  
Heating Degree Days 21    
Moisture  
Dew Point 30 °F    
Average Humidity 55    
Maximum Humidity 81    
Minimum Humidity 29    
Precipitation  
Precipitation 0.00 in 0.06 in - ()
Sea Level Pressure  
Sea Level Pressure 30.17 in    
Wind  
Wind Speed 11 mph ()    
Max Wind Speed 20 mph    
Max Gust Speed -    
Visibility 7.9 miles    
Events Rain    
Averages and records for this station are not official NWS values.
T = Trace of Precipitation, MM = Missing Value Source: Averaged Metar Reports

Daily Weather History Graph

Daily Weather History Graph

Search for Another Location

Airport or City:

Trip Planner

Search our weather history database for the weather conditions in past years. The results will help you decide how hot, cold, wet, or windy it might be!

Date:

Astronomy

Apr. 30, 2013 Rise Set
Actual Time 5:25 AM BST 8:58 PM BST
Civil Twilight 4:38 AM BST 9:46 PM BST
Nautical Twilight 3:31 AM BST 10:54 PM BST
Astronomical Twilight 1:43 AM BST 12:38 AM BST
Moon 1:27 AM BST (4/30) 9:21 AM BST (4/30)
Length of Visible Light 17h 07m
Length of Day
15h 33m
Waning Gibbous, 72% of the Moon is Illuminated
Apr 30
Waning Gibbous
May 2
Last Quarter
May 10
New
May 18
First Quarter
May 25
Full

Hourly Weather History & Observations

Time (BST) Temp. Windchill Dew Point Humidity Pressure Visibility Wind Dir Wind Speed Gust Speed Precip Events Conditions
12:50 AM 39 °F - 32 °F 69% 30.09 in 16 mi West 13.8 mph - -   Scattered Clouds
12:50 AM 39.2 °F 31.2 °F 32.0 °F 75% 30.09 in 6.2 mi West 13.8 mph - N/A   Partly Cloudy
1:50 AM 39.2 °F 32.5 °F 33.8 °F 81% 30.09 in 6.2 mi West 10.4 mph - N/A   Partly Cloudy
2:50 AM 39.2 °F 30.8 °F 32.0 °F 75% 30.12 in 6.2 mi West 15.0 mph - N/A   Unknown
3:50 AM 38 °F - 32 °F 71% 30.17 in 17 mi West 12.7 mph - -   Scattered Clouds
3:50 AM 37.4 °F 29.3 °F 32.0 °F 81% 30.15 in 6.2 mi West 12.7 mph - N/A   Partly Cloudy
4:50 AM 35.6 °F 31.7 °F 30.2 °F 81% 30.18 in 6.2 mi WSW 4.6 mph - N/A   Scattered Clouds
5:50 AM 35.6 °F 29.2 °F 30.2 °F 81% 30.21 in 6.2 mi SSW 8.1 mph - N/A   Unknown
6:50 AM 39 °F - 31 °F 63% 30.24 in 18 mi WSW 8.1 mph - -  
6:50 AM 39.2 °F 33.6 °F 30.2 °F 70% 30.21 in 6.2 mi WSW 8.1 mph - N/A   Mostly Cloudy
7:50 AM 41.0 °F 34.7 °F 30.2 °F 65% 30.24 in 6.2 mi SW 10.4 mph - N/A   Unknown
8:50 AM 42.8 °F 37.0 °F 30.2 °F 61% 30.24 in 6.2 mi WSW 10.4 mph - N/A   Unknown
9:50 AM 46 °F - 28 °F 38% 30.26 in 22 mi WSW 10.4 mph - -   Scattered Clouds
9:50 AM 46.4 °F 41.5 °F 28.4 °F 50% 30.24 in 6.2 mi WSW 10.4 mph - N/A   Partly Cloudy
10:50 AM 48.2 °F - 26.6 °F 43% 30.24 in 6.2 mi SW 12.7 mph - N/A   Scattered Clouds
11:50 AM 50.0 °F - 28.4 °F 43% 30.24 in 6.2 mi SW 13.8 mph - N/A   Partly Cloudy
12:50 PM 52 °F - 29 °F 29% 30.24 in 31 mi WSW 9.2 mph - -   Scattered Clouds
12:50 PM 51.8 °F - 30.2 °F 44% 30.21 in 6.2 mi WSW 9.2 mph - N/A   Partly Cloudy
1:50 PM 53.6 °F - 28.4 °F 38% 30.21 in - WSW 15.0 mph - N/A   Clear
2:50 PM 53.6 °F - 30.2 °F 41% 30.18 in - WSW 16.1 mph - N/A   Clear
3:50 PM 53 °F - 31 °F 30% 30.19 in 31 mi WSW 17.3 mph - - Rain Rain
3:50 PM 53.6 °F - 30.2 °F 41% 30.18 in - WSW 17.3 mph - N/A   Clear
4:50 PM 51.8 °F - 32.0 °F 47% 30.15 in - WSW 19.6 mph - N/A   Clear
5:50 PM 50.0 °F - 33.8 °F 54% 30.15 in - WSW 16.1 mph - N/A   Clear
6:50 PM 49 °F - 32 °F 40% 30.14 in 37 mi WSW 17.3 mph - -   Partly Cloudy
6:50 PM 50.0 °F - 32.0 °F 50% 30.12 in 6.2 mi WSW 17.3 mph - N/A   Mostly Cloudy
7:50 PM 50.0 °F - 30.2 °F 47% 30.12 in 6.2 mi WSW 19.6 mph - N/A   Mostly Cloudy
8:50 PM 48.2 °F - 28.4 °F 46% 30.09 in - SW 15.0 mph - N/A   Clear
9:50 PM 47 °F - 28 °F 35% 30.11 in 40 mi SSW 12.7 mph - -   Overcast
9:50 PM 46.4 °F 40.7 °F 28.4 °F 50% 30.09 in - SSW 12.7 mph - N/A   Clear
10:50 PM 46.4 °F 40.1 °F 28.4 °F 50% 30.06 in - SSW 15.0 mph - N/A   Clear
11:50 PM 44.6 °F 38.1 °F 30.2 °F 57% 30.04 in 6.2 mi SW 13.8 mph - N/A   Mostly Cloudy